Escanaba, MI

1:17 PM EDT on September 26, 2017 (GMT -0400)
Delta County

Weather History for KESC - December, 2011

Change the Weather History Date:

Friday, December 2, 2011

  Actual Average Record
Temperature  
Mean Temperature 21 °F -  
Max Temperature 33 °F 32 °F 53 °F (1982)
Min Temperature 10 °F 20 °F -3 °F (1976)
Degree Days  
Heating Degree Days 44    
Moisture  
Dew Point 12 °F    
Average Humidity 64    
Maximum Humidity 79    
Minimum Humidity 51    
Precipitation  
Precipitation 0.00 in - - ()
Sea Level Pressure  
Sea Level Pressure 30.35 in    
Wind  
Wind Speed 7 mph (WSW)    
Max Wind Speed 16 mph    
Max Gust Speed 22 mph    
Visibility 10 miles    
Events      
Averages and records for this station are not official NWS values.
T = Trace of Precipitation, MM = Missing Value Source: NWS Daily Summary

Daily Weather History Graph

Daily Weather History Graph

Search for Another Location

Airport or City:

Trip Planner

Search our weather history database for the weather conditions in past years. The results will help you decide how hot, cold, wet, or windy it might be!

Date:

Astronomy

Dec. 02, 2011 Rise Set
Actual Time 8:09 AM EST 5:05 PM EST
Civil Twilight 7:35 AM EST 5:39 PM EST
Nautical Twilight 6:58 AM EST 6:16 PM EST
Astronomical Twilight 6:22 AM EST 6:52 PM EST
Moon 1:03 PM EST (12/2) 12:18 AM EST (12/2)
Length of Visible Light 10h 03m
Length of Day
8h 55m
First Quarter, 53% of the Moon is Illuminated
Dec 2
First Quarter
Dec 10
Full
Dec 17
Last Quarter
Dec 24
New
Jan 1
First Quarter

Hourly Weather History & Observations

Time (EST) Temp. Windchill Dew Point Humidity Pressure Visibility Wind Dir Wind Speed Gust Speed Precip Events Conditions
12:15 AM 19.4 °F 9.5 °F 10.4 °F 68% 30.34 in 10.0 mi NW 8.1 mph - N/A   Clear
12:35 AM 19.4 °F 10.4 °F 10.4 °F 68% 30.34 in 10.0 mi NW 6.9 mph - N/A   Clear
12:55 AM 19.4 °F 12.8 °F 10.4 °F 68% 30.34 in 10.0 mi NW 4.6 mph - N/A   Clear
1:15 AM 17.6 °F 8.2 °F 10.4 °F 73% 30.35 in 10.0 mi WNW 6.9 mph - N/A   Clear
1:55 AM 17.6 °F 10.7 °F 8.6 °F 68% 30.34 in 10.0 mi NW 4.6 mph - N/A   Clear
2:55 AM 15.8 °F 7.2 °F 8.6 °F 73% 30.35 in 10.0 mi WNW 5.8 mph - N/A   Clear
3:15 AM 15.8 °F 6.1 °F 8.6 °F 73% 30.36 in 10.0 mi WNW 6.9 mph - N/A   Clear
3:35 AM 15.8 °F 6.1 °F 8.6 °F 73% 30.36 in 10.0 mi WNW 6.9 mph - N/A   Clear
3:55 AM 15.8 °F 8.6 °F 8.6 °F 73% 30.36 in 10.0 mi WNW 4.6 mph - N/A   Clear
4:15 AM 15.8 °F 10.2 °F 8.6 °F 73% 30.36 in 10.0 mi WNW 3.5 mph - N/A   Clear
4:35 AM 15.8 °F 10.2 °F 8.6 °F 73% 30.35 in 10.0 mi WNW 3.5 mph - N/A   Clear
5:15 AM 12.2 °F 4.3 °F 6.8 °F 79% 30.36 in 10.0 mi West 4.6 mph - N/A   Clear
5:35 AM 14.0 °F 6.5 °F 6.8 °F 73% 30.36 in 10.0 mi WNW 4.6 mph - N/A   Clear
6:15 AM 12.2 °F 6.1 °F 6.8 °F 79% 30.36 in 10.0 mi WNW 3.5 mph - N/A   Clear
6:35 AM 14.0 °F 8.2 °F 6.8 °F 73% 30.36 in 10.0 mi WNW 3.5 mph - N/A   Clear
6:55 AM 14.0 °F 8.2 °F 6.8 °F 73% 30.36 in 10.0 mi NW 3.5 mph - N/A   Clear
7:15 AM 10.4 °F 4.0 °F 5.0 °F 79% 30.37 in 10.0 mi WNW 3.5 mph - N/A   Clear
7:35 AM 12.2 °F 4.3 °F 6.8 °F 79% 30.37 in 10.0 mi West 4.6 mph - N/A   Clear
7:55 AM 12.2 °F 4.3 °F 5.0 °F 73% 30.38 in 10.0 mi WNW 4.6 mph - N/A   Clear
8:15 AM 10.4 °F 0.8 °F 3.2 °F 73% 30.39 in 10.0 mi WNW 5.8 mph - N/A   Clear
9:55 AM 19.4 °F 10.4 °F 10.4 °F 68% 30.40 in 10.0 mi West 6.9 mph - N/A   Clear
10:15 AM 19.4 °F 11.5 °F 10.4 °F 68% 30.41 in 10.0 mi WSW 5.8 mph - N/A   Clear
10:35 AM 21.2 °F 13.6 °F 8.6 °F 58% 30.41 in 10.0 mi WSW 5.8 mph - N/A   Clear
10:55 AM 23.0 °F 13.1 °F 8.6 °F 54% 30.42 in 10.0 mi SW 9.2 mph - N/A   Clear
11:15 AM 23.0 °F 13.1 °F 10.4 °F 59% 30.42 in 10.0 mi WSW 9.2 mph - N/A   Clear
11:35 AM 24.8 °F 15.3 °F 10.4 °F 54% 30.41 in 10.0 mi SW 9.2 mph - N/A   Clear
11:55 AM 24.8 °F 14.6 °F 10.4 °F 54% 30.41 in 10.0 mi SW 10.4 mph 16.1 mph N/A   Clear
12:15 PM 24.8 °F 16.9 °F 10.4 °F 54% 30.39 in 10.0 mi SSW 6.9 mph - N/A   Clear
12:35 PM 24.8 °F 16.9 °F 10.4 °F 54% 30.38 in 10.0 mi SW 6.9 mph - N/A   Clear
12:55 PM 26.6 °F 19.1 °F 10.4 °F 51% 30.38 in 10.0 mi SW 6.9 mph - N/A   Clear
1:15 PM 26.6 °F 18.2 °F 10.4 °F 51% 30.37 in 10.0 mi SSW 8.1 mph - N/A   Clear
1:35 PM 26.6 °F 16.2 °F 12.2 °F 55% 30.37 in 10.0 mi SSW 11.5 mph - N/A   Clear
1:55 PM 26.6 °F 17.5 °F 12.2 °F 55% 30.36 in 10.0 mi SSW 9.2 mph - N/A   Clear
2:15 PM 28.4 °F 18.0 °F 12.2 °F 51% 30.36 in 10.0 mi SSW 12.7 mph 18.4 mph N/A   Clear
2:35 PM 28.4 °F 18.5 °F 12.2 °F 51% 30.36 in 10.0 mi SSW 11.5 mph 16.1 mph N/A   Clear
2:55 PM 28.4 °F 18.0 °F 12.2 °F 51% 30.35 in 10.0 mi SSW 12.7 mph 17.3 mph N/A   Clear
3:15 PM 28.4 °F 17.5 °F 14.0 °F 55% 30.34 in 10.0 mi South 13.8 mph 18.4 mph N/A   Clear
3:35 PM 30.2 °F 18.9 °F 14.0 °F 51% 30.33 in 10.0 mi SSW 16.1 mph 19.6 mph N/A   Clear
4:55 PM 30.2 °F 20.8 °F 17.6 °F 60% 30.33 in 10.0 mi SSW 11.5 mph 20.7 mph N/A   Clear
5:35 PM 28.4 °F 20.4 °F 15.8 °F 59% 30.32 in 10.0 mi SW 8.1 mph - N/A   Clear
5:55 PM 28.4 °F 22.2 °F 15.8 °F 59% 30.32 in 10.0 mi SW 5.8 mph - N/A   Clear
6:15 PM 26.6 °F 16.8 °F 15.8 °F 64% 30.32 in 10.0 mi SW 10.4 mph - N/A   Clear
6:35 PM 28.4 °F 20.4 °F 15.8 °F 59% 30.32 in 10.0 mi SW 8.1 mph - N/A   Clear
6:55 PM 26.6 °F 19.1 °F 15.8 °F 64% 30.31 in 10.0 mi SSW 6.9 mph - N/A   Clear
7:15 PM 26.6 °F 20.0 °F 15.8 °F 64% 30.31 in 10.0 mi SW 5.8 mph - N/A   Clear
7:35 PM 26.6 °F 19.1 °F 15.8 °F 64% 30.32 in 10.0 mi SW 6.9 mph - N/A   Clear
7:55 PM 26.6 °F 19.1 °F 15.8 °F 64% 30.31 in 10.0 mi SW 6.9 mph - N/A   Clear
8:15 PM 26.6 °F 20.0 °F 17.6 °F 69% 30.31 in 10.0 mi SW 5.8 mph - N/A   Clear
8:35 PM 28.4 °F 20.4 °F 17.6 °F 64% 30.31 in 10.0 mi SW 8.1 mph - N/A   Clear
8:55 PM 28.4 °F 20.4 °F 17.6 °F 64% 30.31 in 10.0 mi SW 8.1 mph - N/A   Clear
9:15 PM 30.2 °F 21.9 °F 19.4 °F 64% 30.30 in 10.0 mi SW 9.2 mph - N/A   Clear
9:35 PM 30.2 °F 20.2 °F 19.4 °F 64% 30.30 in 10.0 mi SSW 12.7 mph - N/A   Clear
9:55 PM 32.0 °F 23.0 °F 19.4 °F 60% 30.29 in 10.0 mi SW 11.5 mph 17.3 mph N/A   Clear
10:15 PM 33.8 °F 24.8 °F 19.4 °F 56% 30.28 in 10.0 mi SW 12.7 mph 21.9 mph N/A   Clear
10:35 PM 33.8 °F 25.3 °F 19.4 °F 56% 30.29 in 10.0 mi SW 11.5 mph - N/A   Clear
11:35 PM 33.8 °F 23.2 °F 19.4 °F 56% 30.26 in 10.0 mi SW 17.3 mph 24.2 mph N/A   Clear
11:55 PM 33.8 °F 24.8 °F 21.2 °F 60% 30.26 in 10.0 mi SW 12.7 mph 19.6 mph N/A   Clear